Buzzards Bay, MA

5:37 AM EST on February 26, 2017 (GMT -0500)
Cape Cod Coast Guard Air Station

Weather History for KFMH - May, 2013

Change the Weather History Date:

Monday, May 20, 2013

  Actual Average Record
Temperature  
Mean Temperature 62 °F -  
Max Temperature 69 °F 61 °F 75 °F (2003)
Min Temperature 55 °F 45 °F 37 °F (2002)
Degree Days  
Heating Degree Days 3    
Growing Degree Days 12 (Base 50)    
Moisture  
Dew Point 58 °F    
Average Humidity 91    
Maximum Humidity 100    
Minimum Humidity 78    
Precipitation  
Precipitation 0.16 in - - ()
Sea Level Pressure  
Sea Level Pressure 30.05 in    
Wind  
Wind Speed 11 mph (SW)    
Max Wind Speed 16 mph    
Max Gust Speed 22 mph    
Visibility 6 miles    
Events Fog , Rain    
Averages and records for this station are not official NWS values.
T = Trace of Precipitation, MM = Missing Value Source: NWS Daily Summary

Daily Weather History Graph

Daily Weather History Graph

Search for Another Location

Airport or City:

Trip Planner

Search our weather history database for the weather conditions in past years. The results will help you decide how hot, cold, wet, or windy it might be!

Date:

Astronomy

May. 20, 2013 Rise Set
Actual Time 5:17 AM EDT 8:00 PM EDT
Civil Twilight 4:45 AM EDT 8:32 PM EDT
Nautical Twilight 4:05 AM EDT 9:12 PM EDT
Astronomical Twilight 3:19 AM EDT 9:59 PM EDT
Moon 3:00 PM EDT (5/20) 2:15 AM EDT (5/20)
Length of Visible Light 15h 46m
Length of Day
14h 42m
Waxing Gibbous, 75% of the Moon is Illuminated
May 20
Waxing Gibbous
May 25
Full
May 31
Last Quarter
Jun 8
New
Jun 16
First Quarter

Hourly Weather History & Observations

Time (EDT) Temp. Dew Point Humidity Pressure Visibility Wind Dir Wind Speed Gust Speed Precip Events Conditions
12:15 AM 55.4 °F 55.4 °F 100% 30.25 in 1.8 mi SSE 9.2 mph - N/A Rain Light Rain
12:35 AM 55.4 °F 55.4 °F 100% 30.24 in 1.8 mi South 9.2 mph - N/A   Overcast
12:55 AM 55.4 °F 55.4 °F 100% 30.22 in 1.2 mi South 9.2 mph - N/A   Overcast
1:15 AM 55.4 °F 55.4 °F 100% 30.21 in 1.5 mi South 10.4 mph - N/A   Overcast
1:35 AM 55.4 °F 55.4 °F 100% 30.21 in 2.0 mi South 9.2 mph - N/A Rain Light Rain
1:55 AM 55.4 °F 55.4 °F 100% 30.20 in 1.2 mi SSE 10.4 mph - N/A Rain Light Rain
2:15 AM 55.4 °F 55.4 °F 100% 30.18 in 1.8 mi SSE 9.2 mph - N/A Rain Light Rain
2:35 AM 55.4 °F 55.4 °F 100% 30.17 in 1.5 mi South 10.4 mph - N/A   Overcast
2:55 AM 55.4 °F 55.4 °F 100% 30.16 in 2.0 mi South 8.1 mph - N/A Rain Light Rain
3:15 AM 57.2 °F 55.4 °F 94% 30.15 in 2.0 mi South 10.4 mph - N/A Rain Light Rain
3:35 AM 57.2 °F 57.2 °F 100% 30.14 in 1.5 mi South 10.4 mph - N/A Rain Light Rain
3:55 AM 57.2 °F 57.2 °F 100% 30.13 in 5.0 mi South 11.5 mph - N/A   Overcast
4:15 AM 57.2 °F 57.2 °F 100% 30.12 in 1.5 mi South 12.7 mph 17.3 mph N/A   Overcast
4:35 AM 57.2 °F 57.2 °F 100% 30.11 in 2.0 mi South 11.5 mph - N/A Rain Light Rain
4:55 AM 57.2 °F 57.2 °F 100% 30.11 in 1.5 mi SSW 10.4 mph - N/A Rain Light Rain
5:35 AM 57.2 °F 57.2 °F 100% 30.10 in 1.8 mi SSW 11.5 mph - N/A   Overcast
5:55 AM 57.2 °F 57.2 °F 100% 30.10 in 1.5 mi SW 11.5 mph - N/A   Overcast
6:15 AM 57.2 °F 57.2 °F 100% 30.10 in 0.8 mi SW 11.5 mph - N/A   Overcast
6:35 AM 57.2 °F 57.2 °F 100% 30.10 in 0.8 mi SW 11.5 mph - N/A   Overcast
6:55 AM 57.2 °F 57.2 °F 100% 30.10 in 0.5 mi WSW 10.4 mph - N/A Fog Fog
7:15 AM 57.2 °F 57.2 °F 100% 30.09 in 1.5 mi SW 12.7 mph - N/A   Overcast
7:35 AM 57.2 °F 57.2 °F 100% 30.10 in 2.5 mi WSW 9.2 mph - N/A   Overcast
7:55 AM 57.2 °F 57.2 °F 100% 30.09 in 5.0 mi WSW 11.5 mph - N/A   Overcast
8:15 AM 57.2 °F 57.2 °F 100% 30.09 in 5.0 mi SW 11.5 mph - N/A   Overcast
8:35 AM 59.0 °F 59.0 °F 100% 30.08 in 1.0 mi SW 12.7 mph - N/A   Overcast
8:55 AM 59.0 °F 59.0 °F 100% 30.08 in 2.5 mi WSW 12.7 mph - N/A   Overcast
9:15 AM 59.0 °F 59.0 °F 100% 30.08 in 5.0 mi WSW 12.7 mph 17.3 mph N/A   Overcast
9:35 AM 59.0 °F 59.0 °F 100% 30.08 in 10.0 mi West 12.7 mph - N/A   Overcast
9:55 AM 59.0 °F 57.2 °F 94% 30.08 in 10.0 mi WSW 9.2 mph - N/A   Overcast
10:15 AM 62.6 °F 59.0 °F 88% 30.07 in 10.0 mi WSW 12.7 mph - N/A   Overcast
10:35 AM 64.4 °F 59.0 °F 83% 30.05 in 10.0 mi WSW 12.7 mph - N/A   Scattered Clouds
10:55 AM 64.4 °F 59.0 °F 83% 30.05 in 10.0 mi WSW 11.5 mph - N/A   Mostly Cloudy
11:15 AM 66.2 °F 59.0 °F 78% 30.05 in 10.0 mi West 13.8 mph - N/A   Scattered Clouds
11:35 AM 66.2 °F 59.0 °F 78% 30.04 in 10.0 mi WSW 15.0 mph - N/A   Partly Cloudy
11:55 AM 68.0 °F 60.8 °F 78% 30.03 in 10.0 mi WSW 12.7 mph - N/A   Partly Cloudy
12:15 PM 66.2 °F 59.0 °F 78% 30.02 in 10.0 mi WSW 15.0 mph 19.6 mph N/A   Partly Cloudy
12:35 PM 68.0 °F 60.8 °F 78% 30.02 in 10.0 mi WSW 15.0 mph 19.6 mph N/A   Scattered Clouds
12:55 PM 68.0 °F 60.8 °F 78% 30.01 in 10.0 mi SW 13.8 mph - N/A   Partly Cloudy
1:15 PM 68.0 °F 60.8 °F 78% 30.00 in 10.0 mi SW 16.1 mph - N/A   Scattered Clouds
1:35 PM 68.0 °F 60.8 °F 78% 30.00 in 10.0 mi SW 11.5 mph 18.4 mph N/A   Partly Cloudy
1:55 PM 68.0 °F 60.8 °F 78% 29.99 in 10.0 mi SW 13.8 mph - N/A   Partly Cloudy
2:15 PM 68.0 °F 62.6 °F 83% 29.98 in 10.0 mi WSW 12.7 mph - N/A   Clear
2:35 PM 69.8 °F 62.6 °F 78% 29.98 in 10.0 mi WSW 12.7 mph - N/A   Clear
2:55 PM 69.8 °F 62.6 °F 78% 29.98 in 10.0 mi WSW 12.7 mph 17.3 mph N/A   Clear
3:15 PM 68.0 °F 60.8 °F 78% 29.98 in 10.0 mi SW 13.8 mph 19.6 mph N/A   Clear
3:35 PM 68.0 °F 60.8 °F 78% 29.97 in 10.0 mi WSW 16.1 mph - N/A   Clear
3:55 PM 68.0 °F 60.8 °F 78% 29.97 in 10.0 mi SW 16.1 mph - N/A   Clear
4:15 PM 66.2 °F 59.0 °F 78% 29.98 in 10.0 mi WSW 13.8 mph - N/A   Clear
4:35 PM 68.0 °F 60.8 °F 78% 29.97 in 10.0 mi WSW 12.7 mph 21.9 mph N/A   Clear
4:55 PM 68.0 °F 60.8 °F 78% 29.96 in 10.0 mi WSW 16.1 mph 19.6 mph N/A   Clear
5:15 PM 66.2 °F 60.8 °F 83% 29.96 in 10.0 mi WSW 15.0 mph 18.4 mph N/A   Clear
5:35 PM 66.2 °F 60.8 °F 83% 29.96 in 10.0 mi WSW 12.7 mph - N/A   Clear
5:55 PM 66.2 °F 60.8 °F 83% 29.96 in 10.0 mi WSW 12.7 mph - N/A   Clear
6:15 PM 66.2 °F 60.8 °F 83% 29.96 in 10.0 mi WSW 13.8 mph - N/A   Clear
6:35 PM 64.4 °F 59.0 °F 83% 29.97 in 10.0 mi WSW 13.8 mph 18.4 mph N/A   Clear
6:55 PM 62.6 °F 59.0 °F 88% 29.97 in 8.0 mi WSW 10.4 mph - N/A   Clear
7:15 PM 62.6 °F 59.0 °F 88% 29.97 in 9.0 mi WSW 10.4 mph - N/A   Clear
7:35 PM 60.8 °F 59.0 °F 94% 29.97 in 9.0 mi WSW 11.5 mph - N/A   Mostly Cloudy
7:55 PM 59.0 °F 57.2 °F 94% 29.96 in 7.0 mi WSW 10.4 mph - N/A   Overcast
8:15 PM 59.0 °F 57.2 °F 94% 29.97 in 7.0 mi WSW 11.5 mph 17.3 mph N/A   Overcast
8:35 PM 57.2 °F 57.2 °F 100% 29.98 in 7.0 mi WSW 9.2 mph - N/A   Overcast
8:55 PM 59.0 °F 57.2 °F 94% 29.98 in 5.0 mi WSW 8.1 mph - N/A   Overcast
9:15 PM 59.0 °F 57.2 °F 94% 29.99 in 6.0 mi WSW 8.1 mph - N/A   Overcast
9:35 PM 57.2 °F 57.2 °F 100% 30.00 in 5.0 mi WSW 11.5 mph - N/A   Overcast
9:55 PM 57.2 °F 57.2 °F 100% 29.99 in 4.0 mi WSW 10.4 mph - N/A   Overcast
10:15 PM 57.2 °F 57.2 °F 100% 29.99 in 3.0 mi West 9.2 mph - N/A   Overcast
10:35 PM 59.0 °F 57.2 °F 94% 29.99 in 4.0 mi WSW 10.4 mph - N/A   Overcast
10:55 PM 59.0 °F 57.2 °F 94% 29.99 in 4.0 mi WSW 10.4 mph - N/A   Overcast
11:15 PM 57.2 °F 57.2 °F 100% 29.99 in 2.5 mi WSW 8.1 mph - N/A   Overcast
11:35 PM 57.2 °F 57.2 °F 100% 29.98 in 4.0 mi SW 4.6 mph - N/A   Overcast
11:55 PM 57.2 °F 57.2 °F 100% 29.98 in 5.0 mi West 3.5 mph - N/A   Overcast